Location: Unspecified
(0.0000°N, 0.0000°E)
Time: 19:31:08
(UTC+02:00)

Cosmos 1340 - Visible Passes

Search period start: 02 September 2014 00:00
Search period end: 12 September 2014 00:00
Orbit: 524 x 528 km, 81.2° (Epoch: 01 September)

Date Brightness Start Highest point End Pass type
(mag) Time Alt. Az. Time Alt. Az. Time Alt. Az.
02 Sep 3.5 06:53:20 10° N 06:57:09 56° E 07:00:58 10° SSE visible
03 Sep 3.7 06:41:38 10° N 06:45:23 49° E 06:49:09 10° SSE visible
04 Sep 4.0 06:29:55 10° NNE 06:33:37 43° E 06:37:19 10° SSE visible
05 Sep 4.2 06:18:14 10° NNE 06:21:50 38° E 06:25:28 10° SSE visible
06 Sep 4.4 06:06:32 10° NNE 06:10:04 33° E 06:13:36 10° SSE visible
07 Sep 4.7 05:59:05 27° ESE 05:59:05 27° ESE 06:01:42 10° SSE visible
